Location: Poughquag
(41.6090°N, 73.6820°W)
Time: 12:31:48
(UTC-04:00)

Tiros 1 - Pass Details

Date: 31 May 2020
Orbit: 630 x 664 km, 48.4° (Epoch: 06 July)

Event Time Altitude Azimuth Distance (km) Brightness Sun altitude
Rises 11:55:34 0° 203° (SSW) 2,969 10.7 67.1°
Reaches altitude 10° 11:58:15 10° 190° (S) 2,056 10.1 67.4°
Maximum altitude 12:02:05 24° 136° (SE) 1,329 9.6 67.7°
Drops below altitude 10° 12:05:53 10° 82° (E) 2,048 10.0 68.1°
Sets 12:08:33 0° 69° (ENE) 2,955 10.6 68.4°
